Simultaneous Nadir Overpasses (SNOs) Predictions

Prediction of SNOs between AQUA and NPP Satellite Orbit:

Table of predicted SNOs for the next 14.0 days since TLE Epoch: 11/16/2012
Index Date (AQUA) Time (AQUA) Lat,Lon (AQUA) SZA (AQUA ) Date (NPP) Time (NPP) Lat,Lon (NPP) SZA (NPP ) Distance(km) Time Diff (sec)
1 11/18/2012 14:54:06 76.43,-163.24 114.88 11/18/2012 14:53:15 76.42,-163.34 114.95 2.92 51
2 11/18/2012 15:43:15 -77.29, 7.53 66.07 11/18/2012 15:43:41 -77.28, 7.44 66.07 2.31 26
3 11/21/2012 07:10:31 76.85, -45.91 115.04 11/21/2012 07:10:01 76.85, -45.92 115.07 0.33 30
4 11/21/2012 07:59:42 -77.61, 124.69 65.81 11/21/2012 08:00:29 -77.61, 124.69 65.85 0.22 47
5 11/23/2012 23:27:01 77.01, 70.54 115.45 11/23/2012 23:26:52 77.01, 70.50 115.47 1.35 9
6 11/24/2012 00:16:13 -77.72,-118.97 65.36 11/24/2012 00:17:21 -77.72,-119.02 65.40 1.27 68
7 11/26/2012 14:54:25 -76.32, 16.34 63.27 11/26/2012 14:53:19 -76.32, 16.29 63.19 1.60 66
8 11/26/2012 15:43:31 77.25,-172.71 115.73 11/26/2012 15:43:42 77.25,-172.72 115.72 0.14 11
9 11/29/2012 07:10:52 -76.73, 133.59 63.21 11/29/2012 07:10:05 -76.74, 133.64 63.18 1.47 47




NCC Satellite Simultaneous Nadir Overpasses (SNOs) Prediction Service
